Find Starlink 31001

NORAD ID: 58527 Int'l Des: 2023-191 Owner: SPXS Country: US Constellation: starlink operational
LEOCIRCULAR

リアルタイム位置

3D地球を読み込み中...

Starlink 31001について

説明を読み込み中...

次回通過

Passes for default location (London). Set your location on the main map for personalized predictions.

高度履歴

Loading altitude history...

軌道要素

1 58527U 23191V 26122.13152431 -.00003731 00000-0 -12619-3 0 9994
2 58527 42.9985 161.6048 0000879 274.2380 85.8371 15.27566622133643
Epoch: May 2, 2026 • Age: 7 hours

現在のステータス

高度 482.6 km
速度 7.63 km/s
衛星直下点 17.56°N, 51.66°W
打ち上げ日 Dec 7, 2023
運用期間 2.4 years
タイプ internet

技術仕様

分類 Payload
質量 730.00 kg
乾燥質量 700.00 kg
総質量 730.00 kg
長さ 0.30 m
直径 4.10 m
スパン 29.00 m
形状 Box + pan
製造者 SPXS
バスタイプ Starlink V2M
フェーズステータス In Orbit
所有者/国 SPXS/US

Most Searched